Stations météo

réclame
Mon MeteoGroup
Lerwick, Grande-Bretagne (3005): Température de l'air & dewpoint: 09.09.2019 07:00:00 - 15.09.2019 07:00:00 (BST)Lerwick, Grande-Bretagne (3005): Température de l'air -20cm & Température de l'air -100cm: 09.09.2019 07:00:00 - 15.09.2019 07:00:00 (BST)Lerwick, Grande-Bretagne (3005): Vitesse du vent & gusts: 09.09.2019 07:00:00 - 15.09.2019 07:00:00 (BST)Lerwick, Grande-Bretagne (3005): Direction du vent: 09.09.2019 07:00:00 - 15.09.2019 07:00:00 (BST)Lerwick, Grande-Bretagne (3005): reduced air pressure: 09.09.2019 07:00:00 - 15.09.2019 07:00:00 (BST)Lerwick, Grande-Bretagne (3005): visibility: 09.09.2019 07:00:00 - 15.09.2019 07:00:00 (BST)Lerwick, Grande-Bretagne (3005): Ensoleillement: 09.09.2019 07:00:00 - 15.09.2019 07:00:00 (BST)Lerwick, Grande-Bretagne (3005): Quantités de précipitations: 09.09.2019 07:00:00 - 15.09.2019 07:00:00 (BST)
Date & Time tt [°C] td [°C] tt -20cm [°C] tt -100cm [°C] ff [km/h] ff [knt] fx [km/h] fx [knt] dd ppp [hPa] vv [km] sd [min] rr [mm]
15.09.2019 07:00:00 9,8 5,8 - - 74 40 111 60 W 1001,5 6 0 0,0
15.09.2019 06:00:00 9,9 4,6 - - 72 39 107 58 W 1000,9 8 0 0,0
15.09.2019 05:00:00 10,1 4,3 - - 78 42 107 58 W 1001,1 7 0 0,0
15.09.2019 04:00:00 10,1 2,9 - - 78 42 111 60 W 1001,1 8 0 0,0
15.09.2019 03:00:00 10,1 2,2 - - 83 45 109 59 W 1001,1 9 0 0,0
15.09.2019 02:00:00 9,7 3,9 - - 76 41 111 60 W 1001,3 9 0 0,0
15.09.2019 01:00:00 9,9 3,6 - - 80 43 106 57 W 1001,2 9 - 0,0
15.09.2019 00:00:00 9,5 6,3 - - 67 36 96 52 W 1001,9 9 0 0,2
14.09.2019 23:00:00 10,7 6,5 - - 68 37 98 53 W 1001,9 9 0 0,4
14.09.2019 22:00:00 10,4 8,0 - - 70 38 91 49 W 1002,5 9 0 0,0
14.09.2019 21:00:00 11,2 7,7 - - 57 31 81 44 WSW 1003,3 8 0 0,0
14.09.2019 20:00:00 11,6 7,9 - - 65 35 85 46 W 1003,7 8 0 0,0
14.09.2019 19:00:00 11,8 8,1 - - 67 36 91 49 W 1003,7 9 0 0,0
14.09.2019 18:00:00 12,3 11,1 - - 44 24 78 42 WSW 1004,1 5 0 0,0
14.09.2019 17:00:00 12,4 12,0 - - 61 33 85 46 WSW 1004,2 7 0 0,8
14.09.2019 16:00:00 12,7 12,1 - - 65 35 94 51 WSW 1005,1 7 0 1,4
14.09.2019 15:00:00 12,0 11,7 - - 59 32 94 51 SW 1006,2 1,6 0 4,4
14.09.2019 14:00:00 11,7 11,2 - - 68 37 89 48 WSW 1007,4 1,4 0 1,2
14.09.2019 13:00:00 10,8 10,3 - - 63 34 85 46 SW 1009,0 3,7 0 1,0
14.09.2019 12:00:00 9,8 9,4 - - 57 31 78 42 SSW 1011,8 2,7 0 0,4
14.09.2019 11:00:00 10,1 9,5 - - 55 30 70 38 SSW 1014,0 5 0 1,6
14.09.2019 10:00:00 10,2 9,4 11,9 11,7 41 22 63 34 SSW 1016,6 9 0 1,6
14.09.2019 09:00:00 10,9 9,1 - - 46 25 61 33 WSW 1019,1 10 0 0,8
14.09.2019 08:00:00 10,9 10,0 - - 29 16 - - SSW 1019,7 10 0 0,0
14.09.2019 07:00:00 10,9 9,7 - - 35 19 57 31 WSW 1020,7 12 0 0,4
14.09.2019 06:00:00 10,9 10,1 - - 31 17 - - SW 1022,1 8 0 0,6
14.09.2019 05:00:00 10,8 9,5 - - 26 14 - - WSW 1023,3 10 0 0,0
14.09.2019 04:00:00 10,8 9,4 - - 21 11 - - W 1023,9 13 0 0,0
14.09.2019 03:00:00 10,6 9,5 - - 22 12 - - W 1024,9 12 0 0,0
14.09.2019 02:00:00 10,4 8,5 - - 22 12 - - W 1025,2 15 0 0,0
14.09.2019 01:00:00 10,4 8,6 - - 26 14 - - W 1025,4 15 - 0,0
14.09.2019 00:00:00 10,6 9,1 - - 24 13 - - W 1025,7 12 0 0,0
13.09.2019 23:00:00 10,5 8,4 - - 24 13 - - W 1026,1 12 0 0,0
13.09.2019 22:00:00 10,2 7,7 - - 29 16 46 25 W 1026,1 15 0 0,0
13.09.2019 21:00:00 10,5 6,7 - - 34 18 - - W 1026,1 25 0 0,0
13.09.2019 20:00:00 10,4 7,5 - - 28 15 50 27 W 1025,9 14 0 0,0
13.09.2019 19:00:00 10,7 7,7 - - 35 19 54 29 W 1025,7 14 42 0,0
13.09.2019 18:00:00 11,3 8,0 - - 44 24 57 31 W 1025,2 14 30 0,2
13.09.2019 17:00:00 10,1 8,1 - - 42 23 57 31 W 1024,8 9 36 0,6
13.09.2019 16:00:00 12,0 7,6 - - 48 26 61 33 W 1024,7 15 24 0,0
13.09.2019 15:00:00 12,6 6,7 - - 50 27 67 36 W 1024,5 21 48 0,0
13.09.2019 14:00:00 12,8 7,3 - - 48 26 67 36 W 1024,0 18 54 0,0
13.09.2019 13:00:00 12,7 6,9 - - 50 27 65 35 W 1023,5 19 60 0,0
13.09.2019 12:00:00 12,3 6,4 - - 50 27 65 35 W 1022,8 18 36 0,0
13.09.2019 11:00:00 12,1 6,9 - - 44 24 63 34 W 1022,5 20 60 0,0
13.09.2019 10:00:00 11,3 5,9 12,2 11,7 48 26 65 35 W 1021,6 27 54 0,2
13.09.2019 09:00:00 10,8 8,0 - - 44 24 61 33 W 1021,0 20 42 0,0
13.09.2019 08:00:00 9,3 7,4 - - 37 20 61 33 W 1020,7 22 24 0,4
13.09.2019 07:00:00 10,3 7,3 - - 41 22 55 30 W 1020,1 17 0 0,0
13.09.2019 06:00:00 10,4 5,5 - - 37 20 61 33 W 1019,9 26 0 0,0
13.09.2019 05:00:00 9,9 6,7 - - 37 20 52 28 W 1019,5 23 0 0,0
13.09.2019 04:00:00 10,2 6,4 - - 34 18 50 27 W 1019,2 27 0 0,0
13.09.2019 03:00:00 10,1 6,5 - - 35 19 52 28 W 1018,7 28 0 0,0
13.09.2019 02:00:00 10,0 6,9 - - 39 21 50 27 W 1018,3 28 0 0,0
13.09.2019 01:00:00 10,3 7,3 - - 37 20 52 28 W 1017,7 23 - 0,0
13.09.2019 00:00:00 10,1 7,3 - - 39 21 50 27 W 1017,5 24 0 0,0
12.09.2019 23:00:00 10,5 7,8 - - 28 15 - - W 1017,3 16 0 0,0
12.09.2019 22:00:00 10,4 7,1 - - 34 18 48 26 W 1016,9 22 0 0,0
12.09.2019 21:00:00 10,5 7,4 - - 31 17 46 25 WNW 1016,2 23 0 0,0
12.09.2019 20:00:00 10,5 7,9 - - 29 16 50 27 W 1015,5 26 0 0,0
12.09.2019 19:00:00 11,1 8,0 - - 34 18 52 28 WNW 1014,7 30 42 0,0
12.09.2019 18:00:00 11,4 8,0 - - 34 18 55 30 W 1013,8 30 36 0,0
12.09.2019 17:00:00 11,4 9,2 - - 34 18 46 25 W 1013,3 28 30 0,0
12.09.2019 16:00:00 12,2 9,6 - - 35 19 - - W 1012,5 35 42 0,0
12.09.2019 15:00:00 10,8 9,1 - - 24 13 50 27 W 1011,9 13 18 0,4
12.09.2019 14:00:00 12,8 9,7 - - 39 21 57 31 WSW 1011,1 29 48 0,0
12.09.2019 13:00:00 12,2 10,2 - - 37 20 52 28 WSW 1010,9 18 18 0,0
12.09.2019 12:00:00 12,4 10,1 - - 37 20 50 27 WSW 1010,6 26 12 0,0
12.09.2019 11:00:00 11,9 10,4 - - 35 19 50 27 WSW 1010,5 14 6 0,0
12.09.2019 10:00:00 10,5 9,8 12,2 11,7 26 14 46 25 W 1010,4 13 0 0,8
12.09.2019 09:00:00 11,7 9,7 - - 34 18 - - WSW 1009,8 18 18 0,0
12.09.2019 08:00:00 11,0 9,9 - - 28 15 - - W 1009,4 15 6 0,0
12.09.2019 07:00:00 10,5 9,5 - - 26 14 - - WSW 1008,9 13 0 0,0
12.09.2019 06:00:00 10,5 9,3 - - 29 16 - - W 1008,4 16 0 0,0
12.09.2019 05:00:00 10,7 9,5 - - 31 17 48 26 WSW 1008,0 13 0 0,0
12.09.2019 04:00:00 11,1 9,8 - - 34 18 54 29 WSW 1007,9 11 0 0,2
12.09.2019 03:00:00 10,6 9,8 - - 31 17 55 30 W 1007,6 9 0 0,6
12.09.2019 02:00:00 10,8 9,8 - - 46 25 63 34 W 1007,1 13 0 0,0
12.09.2019 01:00:00 11,2 9,9 - - 42 23 61 33 W 1006,6 18 - 0,0
12.09.2019 00:00:00 11,4 10,1 - - 41 22 57 31 W 1006,0 17 0 0,0
11.09.2019 23:00:00 11,5 10,3 - - 34 18 54 29 W 1005,5 12 0 0,0
11.09.2019 22:00:00 11,5 10,2 - - 34 18 52 28 W 1005,1 11 0 0,0
11.09.2019 21:00:00 11,6 10,0 - - 35 19 54 29 W 1004,8 12 0 0,0
11.09.2019 20:00:00 11,5 9,7 - - 41 22 54 29 W 1003,7 16 0 0,0
11.09.2019 19:00:00 11,6 10,1 - - 39 21 55 30 W 1003,1 12 0 0,0
11.09.2019 18:00:00 12,1 10,3 - - 42 23 57 31 W 1002,2 12 36 0,0
11.09.2019 17:00:00 11,2 10,4 - - 42 23 59 32 W 1001,5 6 6 1,2
11.09.2019 16:00:00 12,9 10,4 - - 39 21 57 31 WSW 1000,7 15 48 0,0
11.09.2019 15:00:00 13,8 10,6 - - 42 23 61 33 WSW 999,9 13 30 0,0
11.09.2019 14:00:00 - - - - - - - - - - - - -
11.09.2019 13:00:00 - - - - - - 59 32 - - 14 - 0,0
11.09.2019 12:00:00 - - - - - - 70 38 - - 17 - 0,0
11.09.2019 11:00:00 - - - - - - 67 36 - - 15 - 0,0
11.09.2019 10:00:00 - - 12,4 11,7 - - 61 33 - - 12 - 0,0
11.09.2019 09:00:00 12,2 10,8 - - 46 25 59 32 WSW 994,8 13 0 0,0
11.09.2019 08:00:00 12,1 10,6 - - 39 21 52 28 WSW 994,6 11 36 0,0
11.09.2019 07:00:00 11,7 10,2 - - 39 21 65 35 WSW 994,3 15 0 0,0
11.09.2019 06:00:00 12,0 10,7 - - 44 24 61 33 W 993,7 16 0 0,0
11.09.2019 05:00:00 12,2 11,6 - - 42 23 74 40 W 993,3 11 0 0,0
11.09.2019 04:00:00 12,3 12,1 - - 52 28 78 42 WSW 993,3 9 0 0,2
11.09.2019 03:00:00 12,0 11,7 - - 50 27 67 36 SW 994,0 2,8 0 0,4
11.09.2019 02:00:00 11,4 11,2 - - 48 26 68 37 SSW 994,9 2,0 0 0,6
11.09.2019 01:00:00 11,2 11,0 - - 46 25 67 36 SSW 996,0 5 - 0,6
11.09.2019 00:00:00 10,8 10,6 - - 52 28 72 39 S 997,7 1,9 0 2,6
10.09.2019 23:00:00 11,2 10,8 - - 50 27 68 37 S 999,8 2,4 0 2,4
10.09.2019 22:00:00 11,4 10,7 - - 46 25 61 33 S 1001,6 4,1 0 0,6
10.09.2019 21:00:00 11,6 10,2 - - 44 24 59 32 S 1003,5 18 0 0,0
10.09.2019 20:00:00 11,1 9,2 - - 37 20 52 28 S 1004,9 22 0 0,0
10.09.2019 19:00:00 10,9 8,7 - - 37 20 46 25 S 1006,9 28 0 0,0
10.09.2019 18:00:00 11,1 9,1 - - 31 17 - - S 1008,8 30 0 0,0
10.09.2019 17:00:00 11,5 9,2 - - 28 15 - - S 1009,7 35 18 0,0
10.09.2019 16:00:00 12,3 9,4 - - 21 11 - - S 1010,6 35 0 0,0
10.09.2019 15:00:00 12,1 8,6 - - 18 10 - - SW 1011,9 40 30 0,0
10.09.2019 14:00:00 12,3 7,7 - - 21 11 - - W 1012,7 35 60 0,0
10.09.2019 13:00:00 12,3 9,4 - - 13 7 - - WSW 1012,7 50 24 0,0
10.09.2019 12:00:00 11,2 9,1 - - 16 9 - - WNW 1013,1 40 0 0,0
10.09.2019 11:00:00 11,4 9,8 - - 15 8 - - W 1013,6 60 0 0,0
10.09.2019 10:00:00 10,8 10,5 12,2 11,7 16 9 - - WNW 1013,7 75 0 0,0
10.09.2019 09:00:00 10,8 10,7 - - 13 7 - - WNW 1013,7 1,8 0 0,2
10.09.2019 08:00:00 11,5 11,5 - - 9 5 - - SSW 1013,8 0,4 0 0,2
10.09.2019 07:00:00 11,5 11,4 - - 15 8 - - S 1013,6 4,6 0 0,0
10.09.2019 06:00:00 11,5 11,3 - - 15 8 - - S 1013,6 8 0 0,0
10.09.2019 05:00:00 11,4 11,1 - - 13 7 - - S 1013,6 10 0 0,0
10.09.2019 04:00:00 11,2 11,0 - - 9 5 - - SSW 1013,8 9 0 0,0
10.09.2019 03:00:00 11,1 10,7 - - 11 6 - - SSW 1014,0 15 0 0,0
10.09.2019 02:00:00 11,2 10,7 - - 15 8 - - S 1014,0 13 0 0,0
10.09.2019 01:00:00 11,1 10,6 - - 11 6 - - S 1014,2 27 - 0,0
10.09.2019 00:00:00 8,6 8,4 - - 9 5 - - S 1014,3 11 0 0,0
09.09.2019 23:00:00 8,9 8,5 - - 9 5 - - SSW 1014,3 15 0 0,0
09.09.2019 22:00:00 9,9 9,3 - - 11 6 - - SSW 1014,2 23 0 0,0
09.09.2019 21:00:00 10,2 9,6 - - 13 7 - - S 1014,0 30 0 0,0
09.09.2019 20:00:00 10,3 9,6 - - 13 7 - - S 1013,8 29 12 0,0
09.09.2019 19:00:00 11,5 10,1 - - 11 6 - - S 1013,4 35 60 0,0
09.09.2019 18:00:00 12,5 10,2 - - 16 9 - - S 1012,9 45 60 0,0
09.09.2019 17:00:00 13,3 10,6 - - 18 10 - - S 1012,5 30 60 0,0
09.09.2019 16:00:00 13,6 10,4 - - 21 11 - - S 1012,4 30 60 0,0
09.09.2019 15:00:00 13,8 10,1 - - 22 12 - - S 1012,2 40 60 0,0
09.09.2019 14:00:00 13,8 10,7 - - 22 12 - - SSE 1012,1 40 60 0,0
09.09.2019 13:00:00 13,6 10,6 - - 22 12 - - S 1012,0 35 60 0,0
09.09.2019 12:00:00 13,7 10,7 - - 24 13 - - SSE 1012,0 40 54 0,0
09.09.2019 11:00:00 13,0 10,2 - - 24 13 - - S 1012,3 30 42 0,0
09.09.2019 10:00:00 12,6 10,5 12,0 11,7 24 13 - - S 1012,4 30 24 0,0
09.09.2019 09:00:00 12,3 9,7 - - 28 15 - - SSE 1012,1 30 48 0,0
09.09.2019 08:00:00 11,7 9,5 - - 28 15 - - SSE 1012,2 30 48 0,0
09.09.2019 07:00:00 10,6 8,5 - - 28 15 - - S 1012,4 30 0 0,0

tt = Température de l'air
td = dewpoint
tt -20cm = Température de l'air -20cm
tt -100cm = Température de l'air -100cm
ff = Vitesse du vent
fx = gusts
dd = Direction du vent
ppp = reduced air pressure
vv = visibility
sd = Ensoleillement
rr = Quantités de précipitations

stations d'obs. à proximité